User: anonymous   Login
Location: Newark
(56.0692°N, 115.8617°E)
Time: 05:38:50
(UTC+00:00)
Language:

Transit 2A Rocket - Orbit

View from above orbital plane
View from above orbital plane
View from above satellite
View from above satellite

Ground track
Ground track

The orbit data is extracted from the following two-line orbital elements,

1    47U 60007C   20157.77169298 -.00000013 +00000-0 +22172-4 0  9991
2    47 066.6643 186.2564 0233751 310.6041 047.4931 14.42088566132998
Epoch (UTC): 05 June 2020 18:31:14
Eccentricity: 0.0233751
inclination: 66.6643°
perigee height: 585 km
apogee height: 918 km
right ascension of ascending node: 186.2564°
argument of perigee: 310.6041°
revolutions per day: 14.42088566
mean anomaly at epoch: 47.4931°
orbit number at epoch: 13299

The dashed part of the orbit path shows where the satellite is in the earth's shadow,  

DLR